Vorticity
-0 3 -0 6 -2 3 -2 21 4 1 -2 7 -4 -5 7 10 9 9 7 8 8 9 6 7 11 9 4 5 5 5 5 10 11 8 9 16 10 6 8 7 10 9 12 14 6 7 9 9 11
3 4 -1 1 -0 3 4 2 7 0 -1 -0 3 0 -4 7 9 8 7 5 12 7 9 6 10 8 7 6 6 5 5 7 7 8 8 10 12 11 8 8 7 8 9 4 6 8 7 9 7
7 6 2 -1 -3 0 2 0 5 0 -3 -3 4 1 -0 10 8 5 5 3 8 10 6 5 10 10 6 5 5 6 5 4 5 4 6 8 9 11 11 9 7 8 5 2 4 10 8 5 4
5 3 16 0 1 -2 5 -9 17 -3 1 4 6 -6 2 4 3 5 4 4 4 11 7 5 7 9 9 6 5 6 6 6 4 3 4 4 8 8 8 7 8 9 6 2 6 3 3 2 2
3 4 7 13 4 2 2 0 -0 9 -9 7 3 1 -6 8 4 5 4 4 6 6 12 5 7 7 9 8 5 5 6 7 7 4 5 5 4 5 7 7 6 6 7 6 4 5 4 3 3
3 4 6 6 7 -1 2 3 3 11 -6 0 6 1 -12 3 8 4 3 7 6 6 7 10 5 7 8 10 6 4 5 5 6 8 5 7 6 4 3 3 5 6 8 7 7 6 5 5 5
1 2 5 3 9 -1 -0 4 -3 12 -2 1 9 5 -3 -4 6 4 4 4 5 6 6 8 9 4 7 8 9 5 4 4 5 5 8 7 6 7 6 6 7 6 5 5 6 6 6 7 7
3 1 2 4 2 6 -1 5 4 13 -16 4 -4 4 -2 -1 5 3 5 3 4 3 6 6 10 10 4 7 9 9 5 5 3 4 4 7 6 5 6 7 6 7 7 7 5 4 6 6 5
3 2 3 2 3 8 2 2 1 -3 1 -3 -3 -0 10 3 5 5 3 2 2 3 6 6 4 10 11 5 7 9 8 5 5 3 4 5 6 4 4 5 7 6 4 3 3 4 3 4 6
6 3 4 4 2 2 8 1 2 1 1 -2 1 3 -3 18 5 3 5 2 2 2 1 -1 6 3 8 12 6 5 10 9 5 4 3 2 4 5 5 3 2 3 3 3 4 5 4 4 3
6 9 2 7 4 3 8 3 0 6 6 -0 1 0 -2 2 -4 9 5 6 4 3 2 2 3 3 4 7 12 8 5 9 10 6 5 4 2 2 3 4 4 4 4 4 5 4 4 4 4
8 7 6 3 9 3 5 4 5 -1 7 6 1 -1 -1 2 -4 -5 10 -1 2 8 5 3 2 4 4 5 6 12 8 7 7 9 10 7 6 4 3 3 3 4 3 3 3 4 4 5 4
5 2 5 6 6 11 3 4 0 9 1 0 3 3 1 1 -2 -2 2 14 9 5 8 7 3 2 4 3 5 5 11 8 7 6 8 8 9 8 6 6 5 5 5 5 5 5 5 5 5
14 3 9 3 -5 13 11 3 4 1 5 -3 3 4 3 2 0 1 -2 -9 3 7 4 6 8 5 4 3 3 5 4 10 9 7 7 6 7 8 8 7 7 6 7 7 6 6 7 7 7
6 5 5 11 8 4 17 9 7 0 2 11 8 4 3 1 2 -1 1 -0 -4 6 -6 -4 1 4 6 7 4 3 5 3 8 9 7 7 6 7 7 7 7 8 7 8 7 7 7 7 8
6 2 2 5 7 7 5 21 2 7 1 -1 11 5 1 1 1 1 2 2 2 4 -1 -9 4 2 2 6 5 6 3 4 4 4 10 10 8 6 6 5 6 6 6 6 7 8 8 10 10
10 12 11 10 12 4 3 6 7 16 5 9 -3 7 8 5 3 3 2 2 2 2 4 -8 -2 5 0 -0 6 4 5 4 5 6 4 5 10 11 11 11 10 9 10 10 9 10 9 7 4
11 14 14 13 11 20 14 5 4 4 21 -5 3 0 5 13 7 4 4 -1 0 0 3 3 -1 -3 4 1 0 6 -3 -1 3 4 5 4 3 4 6 9 11 12 11 10 7 6 5 5 6
8 6 6 7 7 9 10 15 16 11 5 16 7 2 -2 4 13 5 2 4 4 1 -1 1 3 2 1 4 4 2 3 2 -1 2 4 4 5 3 2 2 3 4 2 4 5 3 3 2 3
8 8 9 10 11 13 10 7 8 10 18 14 4 9 10 1 1 10 10 1 3 3 5 1 1 2 1 1 4 3 2 1 2 4 2 2 4 6 6 2 1 2 1 2 2 3 3 2 1
7 10 11 10 9 12 13 11 9 6 10 12 21 6 6 8 2 -4 5 2 4 1 2 3 4 1 2 5 1 4 4 2 -0 5 4 -1 4 3 4 4 4 4 3 4 3 2 2 1 1
11 8 9 15 20 18 16 18 11 12 9 8 8 15 12 5 6 4 2 9 -2 1 1 1 1 0 2 1 -0 -1 2 5 2 2 2 1 2 3 3 3 5 4 5 5 4 3 3 2 1
10 13 9 14 16 22 28 25 18 17 14 11 12 10 15 15 7 7 3 1 12 4 1 2 1 3 3 1 2 5 6 3 4 7 2 2 2 3 4 3 2 5 6 4 5 5 4 3 4
12 8 12 14 18 24 37 34 30 26 29 25 20 16 18 15 15 8 9 5 0 12 -0 3 3 2 2 5 7 1 8 9 6 4 3 4 2 2 3 4 3 0 2 7 4 1 3 3 4
11 10 10 8 12 25 39 34 27 43 46 51 43 62 24 16 24 17 11 10 8 3 13 5 4 6 7 6 2 11 10 12 7 4 9 8 2 1 2 3 4 3 4 2 2 4 3 3 3
8 6 7 10 9 20 35 5 28 -4 1 20 21 21 46 47 32 29 22 14 27 7 0 10 17 7 -7 -1 -1 1 10 12 13 10 10 12 5 8 2 -0 3 2 2 2 3 4 4 5 4
5 6 6 7 8 24 41 3 2 11 -3 -6 -2 3 37 20 22 36 25 20 24 25 10 12 1 5 23 5 7 14 7 4 6 10 9 -0 8 10 12 16 2 3 -1 1 5 4 4 7 5
5 5 7 10 9 19 18 13 11 4 23 -4 -36 19 -6 22 21 15 26 18 13 21 19 16 18 26 -14 28 15 0 -10 3 3 9 9 8 14 -14 11 2 7 17 0 1 1 2 5 4 6
6 6 8 7 14 10 12 27 -3 15 10 21 17 24 27 15 20 30 22 20 15 8 21 20 12 16 20 -15 21 26 23 4 -1 3 8 29 39 -8 9 -11 -2 1 10 13 6 1 0 6 4
5 6 8 9 9 14 13 24 37 -3 -5 -3 24 -8 13 18 -13 -4 34 15 32 5 11 10 24 12 13 17 14 -2 17 20 1 9 -5 -11 20 -12 -25 -35 4 22 8 19 10 28 4 -1 -2
Height
5882 5884 5885 5886 5890 5888 5889 5888 5888 5888 5887 5887 5885 5884 5885 5882 5880 5882 5879 5876 5875 5873 5872 5870 5868 5867 5867 5867 5866 5866 5866 5866 5866 5866 5866 5867 5867 5868 5869 5870 5871 5871 5871 5872 5872 5873 5874 5875 5876
5882 5884 5885 5886 5888 5888 5889 5887 5888 5887 5886 5887 5886 5885 5884 5882 5883 5882 5881 5878 5877 5876 5875 5872 5870 5869 5868 5868 5868 5868 5869 5869 5870 5870 5870 5870 5870 5871 5872 5873 5874 5874 5875 5875 5876 5877 5877 5878 5879
5881 5883 5885 5885 5886 5887 5886 5888 5886 5887 5887 5886 5885 5884 5884 5885 5885 5884 5883 5881 5880 5879 5877 5874 5873 5871 5871 5870 5870 5870 5871 5873 5873 5874 5874 5874 5874 5875 5875 5876 5876 5877 5878 5879 5880 5881 5882 5882 5883
5879 5882 5884 5885 5886 5887 5886 5888 5888 5889 5888 5887 5884 5884 5887 5889 5888 5887 5885 5884 5882 5882 5880 5876 5875 5873 5873 5872 5872 5873 5873 5875 5876 5877 5878 5878 5878 5878 5879 5879 5879 5880 5881 5883 5884 5885 5885 5886 5887
5876 5879 5881 5884 5885 5885 5885 5886 5889 5889 5888 5887 5886 5885 5887 5889 5890 5889 5888 5887 5886 5884 5881 5878 5877 5875 5874 5874 5874 5874 5875 5876 5878 5879 5880 5881 5881 5881 5882 5882 5882 5883 5885 5886 5887 5888 5889 5889 5890
5873 5876 5879 5882 5883 5883 5883 5884 5888 5888 5888 5888 5888 5887 5887 5888 5890 5891 5891 5890 5888 5886 5883 5880 5878 5877 5877 5875 5875 5875 5876 5877 5879 5881 5882 5883 5883 5884 5884 5885 5885 5886 5887 5888 5889 5890 5891 5892 5893
5870 5873 5876 5879 5882 5882 5881 5880 5883 5887 5887 5888 5888 5888 5888 5888 5889 5891 5892 5892 5891 5889 5886 5883 5881 5879 5879 5878 5877 5877 5878 5878 5880 5882 5883 5885 5885 5885 5886 5886 5887 5888 5889 5890 5891 5891 5892 5893 5893
5866 5869 5873 5876 5879 5879 5877 5876 5879 5884 5885 5887 5887 5887 5888 5888 5889 5890 5890 5892 5892 5890 5888 5886 5884 5882 5881 5880 5879 5879 5880 5880 5881 5882 5884 5885 5887 5887 5888 5889 5889 5890 5891 5892 5893 5893 5894 5895 5895
5861 5865 5869 5871 5872 5873 5872 5872 5875 5878 5882 5885 5886 5887 5889 5887 5888 5889 5890 5890 5892 5892 5890 5889 5886 5884 5882 5881 5881 5881 5881 5881 5882 5883 5885 5886 5888 5889 5890 5890 5891 5892 5893 5893 5894 5895 5895 5896 5896
5857 5860 5863 5865 5866 5868 5870 5871 5870 5874 5877 5881 5882 5884 5886 5888 5887 5887 5889 5889 5891 5891 5891 5890 5889 5887 5885 5883 5882 5882 5882 5883 5883 5884 5885 5887 5888 5890 5890 5891 5892 5893 5894 5894 5895 5895 5896 5896 5897
5851 5855 5856 5859 5863 5864 5866 5867 5868 5868 5873 5876 5879 5880 5882 5885 5887 5888 5888 5888 5890 5890 5890 5891 5890 5889 5887 5885 5884 5883 5883 5884 5884 5885 5886 5887 5888 5889 5890 5891 5892 5893 5893 5894 5895 5895 5896 5896 5896
5844 5846 5849 5853 5856 5859 5860 5861 5863 5865 5868 5871 5873 5875 5878 5880 5882 5885 5886 5887 5887 5888 5889 5889 5889 5889 5889 5887 5886 5884 5884 5884 5884 5885 5886 5887 5888 5889 5890 5891 5891 5892 5893 5893 5894 5894 5895 5895 5895
5836 5840 5842 5845 5847 5850 5854 5858 5855 5863 5862 5860 5866 5871 5873 5875 5878 5881 5883 5885 5883 5884 5886 5888 5888 5888 5888 5888 5887 5886 5885 5884 5884 5884 5885 5885 5887 5887 5888 5889 5890 5891 5891 5892 5893 5893 5894 5894 5895
5829 5832 5833 5834 5838 5841 5847 5853 5853 5853 5851 5852 5856 5864 5868 5869 5871 5875 5878 5880 5882 5880 5882 5883 5885 5886 5886 5887 5887 5887 5886 5885 5884 5884 5884 5884 5885 5886 5887 5887 5888 5889 5890 5891 5891 5892 5892 5893 5893
5819 5823 5824 5826 5829 5833 5840 5845 5844 5844 5845 5848 5848 5849 5854 5860 5863 5868 5870 5873 5877 5878 5879 5879 5881 5882 5884 5884 5885 5885 5885 5885 5885 5884 5884 5884 5884 5884 5885 5886 5886 5887 5888 5889 5889 5889 5890 5891 5892
5810 5813 5816 5818 5820 5822 5828 5834 5839 5836 5840 5841 5842 5842 5846 5849 5853 5858 5861 5864 5868 5873 5874 5874 5876 5877 5879 5881 5882 5882 5883 5884 5884 5884 5883 5883 5883 5883 5883 5884 5884 5885 5886 5887 5887 5887 5888 5888 5889
5801 5802 5806 5810 5809 5813 5814 5824 5829 5827 5829 5833 5834 5835 5835 5839 5843 5846 5850 5854 5857 5862 5866 5867 5870 5871 5872 5874 5877 5879 5880 5881 5881 5882 5882 5882 5882 5881 5881 5881 5882 5882 5883 5884 5885 5886 5886 5886 5887
5792 5794 5795 5795 5800 5801 5807 5811 5815 5816 5816 5820 5823 5824 5825 5827 5832 5834 5837 5839 5844 5848 5854 5857 5861 5865 5867 5868 5871 5873 5876 5877 5878 5878 5879 5879 5880 5880 5880 5880 5879 5879 5880 5882 5883 5884 5884 5885 5885
5785 5786 5786 5785 5786 5791 5794 5799 5801 5804 5806 5807 5810 5812 5814 5815 5819 5824 5825 5829 5831 5836 5840 5846 5851 5856 5859 5863 5865 5867 5869 5871 5873 5874 5875 5875 5876 5877 5877 5878 5878 5878 5878 5879 5880 5881 5881 5881 5882
5774 5776 5774 5776 5775 5774 5780 5787 5784 5788 5791 5793 5795 5798 5798 5802 5804 5808 5812 5815 5819 5825 5831 5835 5839 5844 5849 5853 5858 5859 5860 5863 5866 5868 5871 5872 5873 5872 5873 5873 5874 5875 5875 5876 5876 5877 5877 5877 5877
5767 5767 5764 5763 5764 5763 5761 5771 5772 5772 5772 5776 5777 5780 5782 5782 5786 5792 5796 5800 5807 5812 5818 5823 5829 5834 5839 5843 5845 5848 5851 5854 5859 5863 5865 5866 5866 5867 5868 5868 5868 5870 5871 5871 5872 5872 5872 5871 5872
5760 5757 5753 5752 5751 5749 5745 5749 5753 5751 5752 5752 5754 5751 5760 5765 5769 5775 5782 5786 5791 5798 5803 5810 5814 5818 5825 5828 5832 5838 5842 5846 5851 5853 5854 5855 5857 5859 5860 5861 5862 5863 5864 5865 5865 5864 5865 5864 5865
5751 5748 5745 5741 5737 5734 5729 5731 5730 5725 5728 5729 5732 5738 5742 5748 5754 5757 5764 5773 5778 5780 5788 5794 5800 5804 5810 5814 5819 5825 5830 5835 5838 5841 5843 5846 5848 5850 5852 5853 5854 5855 5855 5856 5857 5857 5857 5857 5857
5745 5742 5738 5733 5729 5722 5713 5709 5707 5700 5702 5706 5710 5717 5726 5727 5732 5738 5747 5753 5762 5765 5769 5777 5785 5792 5797 5802 5807 5812 5819 5824 5826 5829 5833 5836 5837 5839 5841 5843 5845 5846 5847 5848 5848 5848 5848 5849 5849
5734 5732 5728 5724 5718 5711 5703 5699 5692 5690 5687 5688 5692 5694 5700 5706 5710 5717 5729 5736 5740 5750 5755 5761 5769 5777 5784 5788 5793 5801 5809 5811 5814 5816 5821 5823 5825 5827 5830 5832 5832 5834 5835 5836 5836 5837 5839 5840 5841
5727 5724 5720 5713 5708 5704 5699 5694 5692 5689 5685 5681 5681 5684 5687 5688 5693 5699 5710 5718 5721 5733 5740 5747 5755 5763 5769 5775 5782 5786 5794 5797 5801 5803 5806 5810 5814 5816 5816 5818 5819 5820 5821 5822 5824 5825 5827 5828 5831
5720 5717 5715 5709 5704 5698 5696 5692 5690 5686 5684 5685 5684 5682 5682 5681 5680 5682 5689 5700 5708 5715 5724 5730 5737 5744 5750 5758 5764 5770 5772 5777 5783 5789 5793 5795 5798 5803 5803 5803 5804 5805 5805 5805 5806 5811 5814 5815 5817
5715 5713 5709 5705 5699 5695 5691 5688 5687 5683 5680 5681 5679 5678 5677 5675 5673 5674 5676 5685 5692 5701 5708 5713 5718 5725 5732 5741 5748 5754 5758 5761 5766 5768 5773 5778 5782 5783 5785 5783 5786 5785 5786 5789 5793 5797 5802 5804 5805
5710 5707 5704 5700 5695 5691 5687 5684 5683 5681 5678 5677 5673 5672 5672 5669 5671 5670 5668 5673 5680 5688 5693 5698 5705 5710 5714 5720 5729 5737 5743 5746 5750 5752 5754 5757 5759 5758 5763 5761 5761 5764 5765 5771 5778 5784 5786 5787 5790
5704 5702 5699 5695 5692 5686 5682 5681 5677 5675 5673 5671 5669 5664 5663 5662 5663 5664 5666 5667 5672 5678 5683 5687 5689 5694 5699 5705 5711 5719 5726 5731 5734 5741 5743 5744 5746 5749 5742 5738 5739 5745 5750 5755 5761 5766 5771 5772 5774